• en France
  • Liste des pays
  • À 7 jours
  • Température de l'eau
  • Carte satellitaire
  • Carte météo
  • Widgets météo
  • user-avatar
    Se connecter

    Météo par heure à Zuki

    Ce jour, 18 Août, Samedi

    Heure Température Précipitation Vent Pression Humidité
    00:00 +21°C° 0 mm 3 m/s 752 mmHg 71%
    01:00 +21°C° 0 mm 2 m/s 752 mmHg 74%
    02:00 +20°C° 0 mm 2 m/s 752 mmHg 76%
    03:00 +20°C° 0 mm 2 m/s 752 mmHg 78%
    04:00 +20°C° 0 mm 2 m/s 753 mmHg 80%
    05:00 +21°C° 0 mm 2 m/s 753 mmHg 76%
    06:00 +23°C° 0 mm 1 m/s 753 mmHg 73%
    07:00 +24°C° 0 mm 1 m/s 754 mmHg 70%
    08:00 +25°C° 0 mm 1 m/s 754 mmHg 64%
    09:00 +27°C° 0 mm 1 m/s 754 mmHg 59%
    10:00 +28°C° 0 mm 1 m/s 754 mmHg 54%
    11:00 +29°C° 0 mm 1 m/s 754 mmHg 50%
    12:00 +30°C° 0 mm 1 m/s 754 mmHg 46%
    13:00 +31°C° 0 mm 1 m/s 754 mmHg 42%
    14:00 +31°C° 0 mm 2 m/s 754 mmHg 42%
    15:00 +31°C° 0 mm 2 m/s 754 mmHg 42%
    16:00 +31°C° 0 mm 2 m/s 754 mmHg 42%
    17:00 +29°C° 0 mm 2 m/s 754 mmHg 47%
    18:00 +28°C° 0 mm 2 m/s 754 mmHg 52%
    19:00 +26°C° 0 mm 2 m/s 754 mmHg 58%
    20:00 +25°C° 0,4 mm 2 m/s 754 mmHg 62%
    21:00 +24°C° 0,4 mm 3 m/s 755 mmHg 67%
    22:00 +22°C° 0,4 mm 3 m/s 755 mmHg 72%
    23:00 +21°C° 0,1 mm 2 m/s 755 mmHg 74%

    Demain, 19 Août, Dimanche

    Heure Température Précipitation Vent Pression Humidité
    00:00 +20°C° 0,1 mm 2 m/s 755 mmHg 77%
    01:00 +20°C° 0,1 mm 2 m/s 755 mmHg 80%
    02:00 +19°C° 0 mm 2 m/s 755 mmHg 83%
    03:00 +19°C° 0 mm 2 m/s 755 mmHg 85%
    04:00 +20°C° 0 mm 1 m/s 755 mmHg 88%
    05:00 +21°C° 0 mm 1 m/s 756 mmHg 84%
    06:00 +22°C° 0 mm 1 m/s 756 mmHg 80%
    07:00 +21°C° 0 mm 0 m/s 756 mmHg 76%
    08:00 +24°C° 0 mm 1 m/s 756 mmHg 66%
    09:00 +26°C° 0 mm 1 m/s 756 mmHg 56%
    10:00 +27°C° 0 mm 2 m/s 756 mmHg 46%
    11:00 +28°C° 0 mm 2 m/s 756 mmHg 44%
    12:00 +29°C° 0 mm 2 m/s 756 mmHg 41%
    13:00 +29°C° 0 mm 2 m/s 755 mmHg 39%
    14:00 +29°C° 0 mm 2 m/s 755 mmHg 39%
    15:00 +30°C° 0 mm 2 m/s 755 mmHg 38%
    16:00 +30°C° 0 mm 2 m/s 754 mmHg 38%
    17:00 +28°C° 0 mm 2 m/s 754 mmHg 42%
    18:00 +27°C° 0 mm 1 m/s 754 mmHg 45%
    19:00 +26°C° 0 mm 1 m/s 754 mmHg 48%
    20:00 +25°C° 0 mm 1 m/s 754 mmHg 50%
    21:00 +22°C° 0 mm 0 m/s 754 mmHg 52%
    22:00 +22°C° 0 mm 0 m/s 755 mmHg 54%
    23:00 +21°C° 0 mm 0 m/s 754 mmHg 56%

    Après-demain, 20 Août, Lundi

    Heure Température Précipitation Vent Pression Humidité
    00:00 +23°C° 0 mm 1 m/s 754 mmHg 57%
    01:00 +22°C° 0 mm 1 m/s 754 mmHg 59%
    02:00 +22°C° 0 mm 1 m/s 754 mmHg 61%
    03:00 +22°C° 0 mm 1 m/s 753 mmHg 63%
    04:00 +21°C° 0 mm 2 m/s 753 mmHg 65%
    05:00 +23°C° 0 mm 2 m/s 753 mmHg 65%
    06:00 +24°C° 0 mm 2 m/s 753 mmHg 64%
    07:00 +25°C° 0 mm 2 m/s 753 mmHg 63%
    08:00 +26°C° 0 mm 2 m/s 753 mmHg 59%
    09:00 +28°C° 0 mm 3 m/s 753 mmHg 54%
    10:00 +29°C° 0 mm 3 m/s 752 mmHg 50%
    11:00 +30°C° 0 mm 3 m/s 752 mmHg 48%
    12:00 +30°C° 0 mm 3 m/s 752 mmHg 45%
    13:00 +32°C° 0 mm 4 m/s 751 mmHg 43%
    14:00 +32°C° 0 mm 4 m/s 751 mmHg 42%
    15:00 +32°C° 0 mm 4 m/s 751 mmHg 42%
    16:00 +32°C° 0 mm 4 m/s 750 mmHg 41%
    17:00 +30°C° 0 mm 3 m/s 750 mmHg 44%
    18:00 +29°C° 0 mm 3 m/s 750 mmHg 48%
    19:00 +27°C° 0 mm 3 m/s 750 mmHg 51%
    20:00 +26°C° 0 mm 3 m/s 751 mmHg 54%
    21:00 +26°C° 0 mm 3 m/s 751 mmHg 57%
    22:00 +25°C° 0 mm 3 m/s 751 mmHg 60%
    23:00 +24°C° 0 mm 3 m/s 751 mmHg 64%

    21 Août, Mardi

    Heure Température Précipitation Vent Pression Humidité
    00:00 +22°C° 0 mm 3 m/s 751 mmHg 68%
    01:00 +21°C° 0 mm 3 m/s 752 mmHg 72%
    02:00 +20°C° 0 mm 3 m/s 752 mmHg 76%
    03:00 +20°C° 0 mm 3 m/s 752 mmHg 79%
    04:00 +19°C° 0 mm 3 m/s 752 mmHg 82%
    05:00 +19°C° 0 mm 4 m/s 753 mmHg 79%
    06:00 +20°C° 0 mm 4 m/s 753 mmHg 76%
    07:00 +20°C° 0 mm 5 m/s 753 mmHg 73%
    08:00 +21°C° 0 mm 5 m/s 754 mmHg 66%
    09:00 +22°C° 0 mm 5 m/s 754 mmHg 58%
    10:00 +23°C° 0 mm 5 m/s 754 mmHg 51%
    11:00 +23°C° 0 mm 5 m/s 754 mmHg 47%
    12:00 +25°C° 0 mm 5 m/s 754 mmHg 44%
    13:00 +26°C° 0 mm 5 m/s 754 mmHg 40%
    14:00 +26°C° 0 mm 5 m/s 754 mmHg 40%
    15:00 +26°C° 0 mm 5 m/s 754 mmHg 39%
    16:00 +26°C° 0 mm 5 m/s 754 mmHg 39%
    17:00 +23°C° 0 mm 4 m/s 755 mmHg 43%
    18:00 +22°C° 0 mm 3 m/s 755 mmHg 48%
    19:00 +20°C° 0 mm 2 m/s 755 mmHg 52%
    20:00 +19°C° 0 mm 2 m/s 755 mmHg 56%
    21:00 +19°C° 0 mm 2 m/s 756 mmHg 59%
    22:00 +18°C° 0 mm 2 m/s 756 mmHg 62%
    23:00 +17°C° 0 mm 2 m/s 756 mmHg 67%

    22 Août, Mercredi

    Heure Température Précipitation Vent Pression Humidité
    00:00 +17°C° 0 mm 2 m/s 757 mmHg 71%
    01:00 +16°C° 0 mm 1 m/s 757 mmHg 75%
    02:00 +16°C° 0 mm 1 m/s 757 mmHg 78%
    03:00 +15°C° 0 mm 1 m/s 757 mmHg 80%
    04:00 +15°C° 0 mm 1 m/s 757 mmHg 83%
    05:00 +16°C° 0 mm 1 m/s 757 mmHg 79%
    06:00 +18°C° 0 mm 1 m/s 757 mmHg 75%
    07:00 +19°C° 0 mm 1 m/s 757 mmHg 71%
    08:00 +21°C° 0 mm 1 m/s 757 mmHg 64%
    09:00 +23°C° 0 mm 1 m/s 757 mmHg 57%
    10:00 +24°C° 0 mm 1 m/s 757 mmHg 50%
    11:00 +25°C° 0 mm 1 m/s 757 mmHg 46%
    12:00 +26°C° 0 mm 1 m/s 757 mmHg 42%
    13:00 +27°C° 0 mm 1 m/s 756 mmHg 37%
    14:00 +28°C° 0 mm 1 m/s 756 mmHg 36%
    15:00 +28°C° 0 mm 1 m/s 756 mmHg 35%
    16:00 +26°C° 0 mm 0 m/s 755 mmHg 34%
    17:00 +26°C° 0 mm 1 m/s 755 mmHg 38%
    18:00 +25°C° 0 mm 1 m/s 755 mmHg 42%
    19:00 +23°C° 0 mm 1 m/s 755 mmHg 45%
    20:00 +22°C° 0 mm 1 m/s 755 mmHg 48%
    21:00 +21°C° 0 mm 2 m/s 756 mmHg 51%
    22:00 +20°C° 0 mm 2 m/s 756 mmHg 53%
    23:00 +19°C° 0 mm 2 m/s 756 mmHg 56%

    23 Août, Jeudi

    Heure Température Précipitation Vent Pression Humidité
    00:00 +19°C° 0 mm 2 m/s 755 mmHg 59%
    01:00 +19°C° 0 mm 2 m/s 755 mmHg 61%
    02:00 +18°C° 0 mm 2 m/s 755 mmHg 64%
    03:00 +18°C° 0 mm 2 m/s 755 mmHg 66%
    04:00 +18°C° 0 mm 2 m/s 755 mmHg 68%
    05:00 +19°C° 0 mm 2 m/s 755 mmHg 66%
    06:00 +20°C° 0 mm 2 m/s 755 mmHg 64%
    07:00 +21°C° 0 mm 2 m/s 755 mmHg 62%
    08:00 +24°C° 0 mm 2 m/s 755 mmHg 56%
    09:00 +25°C° 0 mm 2 m/s 755 mmHg 51%
    10:00 +27°C° 0 mm 2 m/s 755 mmHg 45%
    11:00 +28°C° 0 mm 2 m/s 754 mmHg 42%
    12:00 +29°C° 0 mm 2 m/s 754 mmHg 39%
    13:00 +30°C° 0 mm 2 m/s 754 mmHg 37%
    14:00 +30°C° 0 mm 2 m/s 753 mmHg 36%
    15:00 +30°C° 0 mm 2 m/s 753 mmHg 36%
    16:00 +30°C° 0 mm 2 m/s 753 mmHg 36%
    17:00 +29°C° 0 mm 2 m/s 753 mmHg 40%
    18:00 +27°C° 0 mm 2 m/s 753 mmHg 44%
    19:00 +26°C° 0 mm 2 m/s 752 mmHg 48%
    20:00 +25°C° 0 mm 2 m/s 752 mmHg 50%
    21:00 +24°C° 0 mm 3 m/s 753 mmHg 52%
    22:00 +22°C° 0 mm 3 m/s 753 mmHg 54%
    23:00 +22°C° 0 mm 3 m/s 752 mmHg 58%
    Voir plus